Time,TemperatureF,DewpointF,PressureIn,WindDirection,WindDirectionDegrees,WindSpeedMPH,WindSpeedGustMPH,Humidity,HourlyPrecipIn,Conditions,Clouds,dailyrainin,SoftwareType,DateUTC
2013-04-05 00:00:00,42.7,36.0,29.77,South,180,0.0,1.1,77,0.00,,,0.00,WUHU216HW,2013-04-05 05:00:00,
2013-04-05 00:05:00,42.3,35.6,29.77,ESE,113,0.2,0.4,77,0.00,,,0.00,WUHU216HW,2013-04-05 05:05:00,
2013-04-05 00:10:00,42.2,35.9,29.77,NNW,338,0.2,0.7,78,0.00,,,0.00,WUHU216HW,2013-04-05 05:10:00,
2013-04-05 00:15:00,42.6,37.0,29.77,NNW,330,0.3,1.3,80,0.00,,,0.00,WUHU216HW,2013-04-05 05:15:00,
2013-04-05 00:20:00,43.2,37.2,29.78,WNW,293,2.2,2.2,79,0.00,,,0.00,WUHU216HW,2013-04-05 05:20:00,
2013-04-05 00:25:00,44.0,38.0,29.77,NNW,331,0.6,2.2,79,0.00,,,0.00,WUHU216HW,2013-04-05 05:25:00,
2013-04-05 00:30:00,44.5,38.1,29.78,North,358,0.6,2.2,78,0.00,,,0.00,WUHU216HW,2013-04-05 05:30:00,
2013-04-05 00:35:00,44.5,38.2,29.78,North,358,1.1,2.9,78,0.00,,,0.00,WUHU216HW,2013-04-05 05:35:00,
2013-04-05 00:40:00,44.8,38.1,29.78,North,0,1.6,2.9,77,0.00,,,0.00,WUHU216HW,2013-04-05 05:40:00,
2013-04-05 00:45:00,44.7,38.0,29.78,NNW,342,0.7,1.6,77,0.00,,,0.00,WUHU216HW,2013-04-05 05:45:00,
2013-04-05 00:50:00,44.5,37.5,29.78,NNW,338,1.1,1.6,76,0.00,,,0.00,WUHU216HW,2013-04-05 05:50:00,
2013-04-05 00:55:00,44.4,37.4,29.78,NW,323,0.4,1.1,76,0.00,,,0.00,WUHU216HW,2013-04-05 05:55:00,
2013-04-05 01:00:00,44.5,37.5,29.78,North,10,0.6,1.1,76,0.00,,,0.00,WUHU216HW,2013-04-05 06:00:00,
2013-04-05 01:05:00,44.2,37.2,29.79,North,349,0.6,1.1,76,0.00,,,0.00,WUHU216HW,2013-04-05 06:05:00,
2013-04-05 01:10:00,44.5,37.5,29.79,NE,45,0.9,1.3,76,0.00,,,0.00,WUHU216HW,2013-04-05 06:10:00,
2013-04-05 01:15:00,44.6,37.6,29.79,NNE,21,1.0,1.8,76,0.00,,,0.00,WUHU216HW,2013-04-05 06:15:00,
2013-04-05 01:20:00,44.6,37.6,29.79,NNE,18,0.2,1.8,76,0.00,,,0.00,WUHU216HW,2013-04-05 06:20:00,
2013-04-05 01:25:00,44.2,37.2,29.79,NNE,23,0.7,1.1,76,0.00,,,0.00,WUHU216HW,2013-04-05 06:25:00,
2013-04-05 01:30:00,43.9,36.9,29.79,NE,45,0.7,1.1,76,0.00,,,0.00,WUHU216HW,2013-04-05 06:30:00,
2013-04-05 01:35:00,43.8,37.1,29.79,NNE,23,0.4,1.1,77,0.00,,,0.00,WUHU216HW,2013-04-05 06:35:00,
2013-04-05 01:40:00,43.6,37.3,29.79,NNE,33,0.4,0.9,78,0.00,,,0.00,WUHU216HW,2013-04-05 06:40:00,
2013-04-05 01:45:00,43.7,37.3,29.80,ENE,58,0.3,0.9,78,0.00,,,0.00,WUHU216HW,2013-04-05 06:45:00,
2013-04-05 01:50:00,43.7,37.4,29.79,ENE,72,0.3,0.7,78,0.00,,,0.00,WUHU216HW,2013-04-05 06:50:00,
2013-04-05 01:55:00,43.9,37.6,29.79,NE,48,0.5,0.7,78,0.00,,,0.00,WUHU216HW,2013-04-05 06:55:00,
2013-04-05 02:00:00,43.9,37.6,29.79,NNE,12,0.3,0.7,78,0.00,,,0.00,WUHU216HW,2013-04-05 07:00:00,
2013-04-05 02:05:00,43.8,37.1,29.79,NE,45,0.4,0.7,77,0.00,,,0.00,WUHU216HW,2013-04-05 07:05:00,
2013-04-05 02:10:00,43.2,36.5,29.79,NE,40,0.4,0.7,77,0.00,,,0.00,WUHU216HW,2013-04-05 07:10:00,
2013-04-05 02:15:00,43.1,36.8,29.80,NE,44,0.5,1.1,78,0.00,,,0.00,WUHU216HW,2013-04-05 07:15:00,
2013-04-05 02:20:00,42.9,36.6,29.79,NE,56,0.5,1.1,78,0.00,,,0.00,WUHU216HW,2013-04-05 07:20:00,
2013-04-05 02:25:00,42.5,36.2,29.79,NE,41,0.7,0.9,78,0.00,,,0.00,WUHU216HW,2013-04-05 07:25:00,
2013-04-05 02:30:00,42.2,35.6,29.79,NNE,24,0.5,0.9,77,0.00,,,0.00,WUHU216HW,2013-04-05 07:30:00,
2013-04-05 02:36:00,42.2,35.6,29.79,NNE,33,0.3,0.7,77,0.00,,,0.00,WUHU216HW,2013-04-05 07:36:00,
2013-04-05 02:41:00,41.8,35.2,29.80,NNE,23,0.0,0.4,77,0.00,,,0.00,WUHU216HW,2013-04-05 07:41:00,
2013-04-05 02:46:00,41.3,35.0,29.80,NNE,23,0.2,0.4,78,0.00,,,0.00,WUHU216HW,2013-04-05 07:46:00,
2013-04-05 02:51:00,41.3,35.0,29.80,North,0,0.4,0.4,78,0.00,,,0.00,WUHU216HW,2013-04-05 07:51:00,
2013-04-05 02:56:00,40.9,34.6,29.81,ENE,71,0.3,0.4,78,0.00,,,0.00,WUHU216HW,2013-04-05 07:56:00,
2013-04-05 03:01:00,40.6,34.4,29.81,East,79,0.2,0.7,78,0.00,,,0.00,WUHU216HW,2013-04-05 08:01:00,
2013-04-05 03:07:00,40.4,34.2,29.81,NE,45,0.2,0.7,78,0.00,,,0.00,WUHU216HW,2013-04-05 08:07:00,
2013-04-05 03:12:00,40.4,34.1,29.81,NE,45,0.2,0.4,78,0.00,,,0.00,WUHU216HW,2013-04-05 08:12:00,
2013-04-05 03:17:00,40.3,34.0,29.81,ENE,68,0.4,0.7,78,0.00,,,0.00,WUHU216HW,2013-04-05 08:17:00,
2013-04-05 03:22:00,40.0,33.8,29.81,SE,135,0.0,0.7,78,0.00,,,0.00,WUHU216HW,2013-04-05 08:22:00,
2013-04-05 03:27:00,39.3,32.7,29.81,SE,135,0.0,0.4,77,0.00,,,0.00,WUHU216HW,2013-04-05 08:27:00,
2013-04-05 03:32:00,38.6,32.7,29.81,ESE,113,0.2,0.2,79,0.00,,,0.00,WUHU216HW,2013-04-05 08:32:00,
2013-04-05 03:37:00,38.6,32.7,29.81,ENE,68,0.0,0.2,79,0.00,,,0.00,WUHU216HW,2013-04-05 08:37:00,
2013-04-05 03:42:00,38.3,32.4,29.81,ESE,113,0.0,0.0,79,0.00,,,0.00,WUHU216HW,2013-04-05 08:42:00,
2013-04-05 03:47:00,38.0,32.4,29.82,ENE,68,0.0,0.4,80,0.00,,,0.00,WUHU216HW,2013-04-05 08:47:00,
2013-04-05 03:52:00,38.2,32.6,29.82,ESE,113,0.2,0.4,80,0.00,,,0.00,WUHU216HW,2013-04-05 08:52:00,
2013-04-05 03:57:00,38.4,32.8,29.82,ESE,113,0.3,0.4,80,0.00,,,0.00,WUHU216HW,2013-04-05 08:57:00,
2013-04-05 04:02:00,38.3,32.4,29.82,ENE,68,0.0,0.4,79,0.00,,,0.00,WUHU216HW,2013-04-05 09:02:00,
2013-04-05 04:07:00,38.0,32.1,29.82,ENE,68,0.0,0.2,79,0.00,,,0.00,WUHU216HW,2013-04-05 09:07:00,
2013-04-05 04:12:00,37.3,31.4,29.82,ESE,113,0.0,0.0,79,0.00,,,0.00,WUHU216HW,2013-04-05 09:12:00,
2013-04-05 04:17:00,36.5,30.7,29.82,ESE,113,0.0,0.0,79,0.00,,,0.00,WUHU216HW,2013-04-05 09:17:00,
2013-04-05 04:22:00,36.0,30.1,29.82,ESE,113,0.0,0.0,79,0.00,,,0.00,WUHU216HW,2013-04-05 09:22:00,
2013-04-05 04:27:00,35.3,29.5,29.83,ESE,113,0.0,0.0,79,0.00,,,0.00,WUHU216HW,2013-04-05 09:27:00,
2013-04-05 04:32:00,35.0,29.5,29.83,SE,135,0.2,0.2,80,0.00,,,0.00,WUHU216HW,2013-04-05 09:32:00,
2013-04-05 04:37:00,34.9,29.4,29.83,East,90,0.0,0.2,80,0.00,,,0.00,WUHU216HW,2013-04-05 09:37:00,
2013-04-05 04:42:00,34.8,29.6,29.83,East,90,0.0,0.0,81,0.00,,,0.00,WUHU216HW,2013-04-05 09:42:00,
2013-04-05 04:47:00,34.3,28.8,29.83,East,90,0.0,0.0,80,0.00,,,0.00,WUHU216HW,2013-04-05 09:47:00,
2013-04-05 04:52:00,33.8,28.3,29.83,East,90,0.0,0.0,80,0.00,,,0.00,WUHU216HW,2013-04-05 09:52:00,
2013-04-05 04:57:00,33.2,27.8,29.83,East,90,0.0,0.0,80,0.00,,,0.00,WUHU216HW,2013-04-05 09:57:00,
2013-04-05 05:02:00,32.9,27.5,29.83,East,90,0.0,0.0,80,0.00,,,0.00,WUHU216HW,2013-04-05 10:02:00,
2013-04-05 05:07:00,32.6,27.8,29.84,East,90,0.0,0.0,82,0.00,,,0.00,WUHU216HW,2013-04-05 10:07:00,
2013-04-05 05:12:00,32.9,28.4,29.84,East,90,0.0,0.0,83,0.00,,,0.00,WUHU216HW,2013-04-05 10:12:00,
2013-04-05 05:17:00,33.0,28.8,29.84,East,90,0.0,0.0,84,0.00,,,0.00,WUHU216HW,2013-04-05 10:17:00,
2013-04-05 05:22:00,32.7,28.2,29.84,East,90,0.0,0.0,83,0.00,,,0.00,WUHU216HW,2013-04-05 10:22:00,
2013-04-05 05:27:00,32.3,27.7,29.84,East,90,0.0,0.0,83,0.00,,,0.00,WUHU216HW,2013-04-05 10:27:00,
2013-04-05 05:32:00,32.0,27.8,29.85,East,90,0.0,0.0,84,0.00,,,0.00,WUHU216HW,2013-04-05 10:32:00,
2013-04-05 05:37:00,31.8,27.5,29.85,East,90,0.0,0.0,84,0.00,,,0.00,WUHU216HW,2013-04-05 10:37:00,
2013-04-05 05:42:00,31.0,26.5,29.85,East,90,0.0,0.0,83,0.00,,,0.00,WUHU216HW,2013-04-05 10:42:00,
2013-04-05 05:47:00,30.8,26.6,29.85,East,90,0.0,0.0,84,0.00,,,0.00,WUHU216HW,2013-04-05 10:47:00,
2013-04-05 05:52:00,30.3,26.1,29.86,East,90,0.0,0.0,84,0.00,,,0.00,WUHU216HW,2013-04-05 10:52:00,
2013-04-05 05:57:00,30.6,26.9,29.86,East,90,0.0,0.0,86,0.00,,,0.00,WUHU216HW,2013-04-05 10:57:00,
2013-04-05 06:02:00,30.6,26.9,29.86,East,90,0.0,0.0,86,0.00,,,0.00,WUHU216HW,2013-04-05 11:02:00,
2013-04-05 06:07:00,30.4,26.7,29.86,East,90,0.0,0.0,86,0.00,,,0.00,WUHU216HW,2013-04-05 11:07:00,
2013-04-05 06:12:00,30.1,26.4,29.86,ENE,68,0.0,0.0,86,0.00,,,0.00,WUHU216HW,2013-04-05 11:12:00,
2013-04-05 06:17:00,30.3,26.9,29.86,North,0,0.2,0.2,87,0.00,,,0.00,WUHU216HW,2013-04-05 11:17:00,
2013-04-05 06:22:00,30.4,26.7,29.86,NNE,23,0.0,0.2,86,0.00,,,0.00,WUHU216HW,2013-04-05 11:22:00,
2013-04-05 06:27:00,30.6,27.0,29.86,North,0,0.0,0.4,86,0.00,,,0.00,WUHU216HW,2013-04-05 11:27:00,
2013-04-05 06:32:00,30.5,26.8,29.86,North,0,0.0,0.4,86,0.00,,,0.00,WUHU216HW,2013-04-05 11:32:00,
2013-04-05 06:37:00,30.4,26.7,29.86,North,0,0.0,0.0,86,0.00,,,0.00,WUHU216HW,2013-04-05 11:37:00,
2013-04-05 06:43:00,29.7,25.7,29.86,SE,135,0.0,0.0,85,0.00,,,0.00,WUHU216HW,2013-04-05 11:43:00,
2013-04-05 06:48:00,29.3,25.3,29.87,NNE,23,0.0,0.0,85,0.00,,,0.00,WUHU216HW,2013-04-05 11:48:00,
2013-04-05 06:53:00,29.4,25.4,29.87,North,0,0.0,0.0,85,0.00,,,0.00,WUHU216HW,2013-04-05 11:53:00,
2013-04-05 06:58:00,29.7,26.1,29.87,North,0,0.4,0.7,86,0.00,,,0.00,WUHU216HW,2013-04-05 11:58:00,
2013-04-05 07:03:00,30.6,26.9,29.87,NNE,21,0.4,0.7,86,0.00,,,0.00,WUHU216HW,2013-04-05 12:03:00,
2013-04-05 07:08:00,31.0,27.3,29.87,NNW,338,0.2,0.7,86,0.00,,,0.00,WUHU216HW,2013-04-05 12:08:00,
2013-04-05 07:13:00,31.5,27.5,29.87,North,0,0.3,0.7,85,0.00,,,0.00,WUHU216HW,2013-04-05 12:13:00,
2013-04-05 07:18:00,31.7,27.7,29.88,North,0,0.2,0.7,85,0.00,,,0.00,WUHU216HW,2013-04-05 12:18:00,
2013-04-05 07:23:00,31.9,27.6,29.88,North,0,0.0,0.4,84,0.00,,,0.00,WUHU216HW,2013-04-05 12:23:00,
2013-04-05 07:28:00,32.0,27.7,29.88,SE,140,0.2,0.2,84,0.00,,,0.00,WUHU216HW,2013-04-05 12:28:00,
2013-04-05 07:33:00,32.4,28.1,29.88,NNW,331,0.2,0.4,84,0.00,,,0.00,WUHU216HW,2013-04-05 12:33:00,
2013-04-05 07:38:00,32.8,28.5,29.88,East,90,0.4,0.4,84,0.00,,,0.00,WUHU216HW,2013-04-05 12:38:00,
2013-04-05 07:43:00,33.3,29.0,29.89,NNW,338,0.2,0.4,84,0.00,,,0.00,WUHU216HW,2013-04-05 12:43:00,
2013-04-05 07:48:00,33.8,28.9,29.89,NNE,23,2.0,2.0,82,0.00,,,0.00,WUHU216HW,2013-04-05 12:48:00,
2013-04-05 07:53:00,34.4,29.8,29.89,NNW,338,1.1,2.0,83,0.00,,,0.00,WUHU216HW,2013-04-05 12:53:00,
2013-04-05 07:58:00,34.7,29.5,29.89,NNW,338,1.1,2.7,81,0.00,,,0.00,WUHU216HW,2013-04-05 12:58:00,
2013-04-05 08:03:00,35.3,30.1,29.89,North,353,1.1,2.9,81,0.00,,,0.00,WUHU216HW,2013-04-05 13:03:00,
2013-04-05 08:08:00,35.6,30.4,29.90,NNW,338,0.9,2.9,81,0.00,,,0.00,WUHU216HW,2013-04-05 13:08:00,
2013-04-05 08:13:00,36.0,30.5,29.90,NE,36,0.8,2.9,80,0.00,,,0.00,WUHU216HW,2013-04-05 13:13:00,
2013-04-05 08:18:00,36.4,30.9,29.90,North,3,0.5,2.9,80,0.00,,,0.00,WUHU216HW,2013-04-05 13:18:00,
2013-04-05 08:23:00,37.3,31.4,29.90,North,0,1.5,3.6,79,0.00,,,0.00,WUHU216HW,2013-04-05 13:23:00,
2013-04-05 08:28:00,38.0,31.5,29.91,NNE,23,4.0,4.0,77,0.00,,,0.00,WUHU216HW,2013-04-05 13:28:00,
2013-04-05 08:33:00,38.7,31.5,29.91,NNE,28,2.2,4.5,75,0.00,,,0.00,WUHU216HW,2013-04-05 13:33:00,
2013-04-05 08:38:00,39.4,31.9,29.91,NE,41,3.8,6.3,74,0.00,,,0.00,WUHU216HW,2013-04-05 13:38:00,
2013-04-05 08:43:00,40.3,32.4,29.91,North,0,2.2,6.3,73,0.00,,,0.00,WUHU216HW,2013-04-05 13:43:00,
2013-04-05 08:48:00,41.6,32.3,29.91,NE,54,3.4,5.6,69,0.00,,,0.00,WUHU216HW,2013-04-05 13:48:00,
2013-04-05 08:53:00,42.3,33.0,29.91,NE,39,2.5,5.6,69,0.00,,,0.00,WUHU216HW,2013-04-05 13:53:00,
2013-04-05 08:58:00,43.2,33.1,29.92,NNE,13,4.3,6.9,67,0.00,,,0.00,WUHU216HW,2013-04-05 13:58:00,
2013-04-05 09:03:00,44.3,33.8,29.91,ENE,68,2.2,6.9,66,0.00,,,0.00,WUHU216HW,2013-04-05 14:03:00,
2013-04-05 09:08:00,45.4,33.3,29.91,North,0,3.6,4.0,62,0.00,,,0.00,WUHU216HW,2013-04-05 14:08:00,
2013-04-05 09:13:00,45.2,32.3,29.91,North,0,4.7,6.5,60,0.00,,,0.00,WUHU216HW,2013-04-05 14:13:00,
2013-04-05 09:18:00,45.9,32.5,29.91,NE,45,5.4,6.5,59,0.00,,,0.00,WUHU216HW,2013-04-05 14:18:00,
2013-04-05 09:23:00,45.7,32.3,29.92,ESE,113,4.7,6.7,59,0.00,,,0.00,WUHU216HW,2013-04-05 14:23:00,
2013-04-05 09:28:00,46.4,32.5,29.91,ENE,68,2.5,6.9,58,0.00,,,0.00,WUHU216HW,2013-04-05 14:28:00,
2013-04-05 09:33:00,47.4,33.5,29.91,East,90,2.7,6.9,58,0.00,,,0.00,WUHU216HW,2013-04-05 14:33:00,
2013-04-05 09:38:00,47.7,33.8,29.91,ENE,57,2.2,5.8,58,0.00,,,0.00,WUHU216HW,2013-04-05 14:38:00,
2013-04-05 09:43:00,48.3,33.0,29.91,WSW,248,2.7,5.8,55,0.00,,,0.00,WUHU216HW,2013-04-05 14:43:00,
2013-04-05 09:48:00,48.4,32.6,29.91,NNE,23,6.5,6.9,54,0.00,,,0.00,WUHU216HW,2013-04-05 14:48:00,
2013-04-05 09:53:00,48.5,32.7,29.91,NNE,23,3.6,6.9,54,0.00,,,0.00,WUHU216HW,2013-04-05 14:53:00,
2013-04-05 09:58:00,48.9,31.6,29.92,ESE,113,3.8,6.5,51,0.00,,,0.00,WUHU216HW,2013-04-05 14:58:00,
2013-04-05 10:03:00,49.0,31.2,29.92,NE,35,3.9,5.4,50,0.00,,,0.00,WUHU216HW,2013-04-05 15:03:00,
2013-04-05 10:08:00,49.2,31.3,29.92,East,96,3.7,5.1,50,0.00,,,0.00,WUHU216HW,2013-04-05 15:08:00,
2013-04-05 10:14:00,49.3,30.9,29.92,North,0,4.7,5.6,49,0.00,,,0.00,WUHU216HW,2013-04-05 15:14:00,
2013-04-05 10:19:00,49.8,32.0,29.92,East,90,2.5,5.6,50,0.00,,,0.00,WUHU216HW,2013-04-05 15:19:00,
2013-04-05 10:24:00,50.5,31.6,29.91,NE,46,3.2,5.4,48,0.00,,,0.00,WUHU216HW,2013-04-05 15:24:00,
2013-04-05 10:29:00,50.5,31.0,29.91,NE,45,3.8,5.4,47,0.00,,,0.00,WUHU216HW,2013-04-05 15:29:00,
2013-04-05 10:34:00,50.1,30.1,29.90,NNE,33,4.0,8.7,46,0.00,,,0.00,WUHU216HW,2013-04-05 15:34:00,
2013-04-05 10:39:00,50.3,30.3,29.90,NNE,23,7.4,8.7,46,0.00,,,0.00,WUHU216HW,2013-04-05 15:39:00,
2013-04-05 10:44:00,50.6,30.0,29.90,ESE,112,2.1,7.8,45,0.00,,,0.00,WUHU216HW,2013-04-05 15:44:00,
2013-04-05 10:50:00,51.2,30.5,29.90,South,180,3.1,7.4,45,0.00,,,0.00,WUHU216HW,2013-04-05 15:50:00,
2013-04-05 10:55:00,51.1,30.4,29.90,East,100,2.6,6.3,45,0.00,,,0.00,WUHU216HW,2013-04-05 15:55:00,
2013-04-05 11:00:00,51.4,30.7,29.90,SSE,163,3.1,6.3,45,0.00,,,0.00,WUHU216HW,2013-04-05 16:00:00,
2013-04-05 11:05:00,51.6,29.2,29.90,North,7,4.1,5.4,42,0.00,,,0.00,WUHU216HW,2013-04-05 16:05:00,
2013-04-05 11:10:00,51.7,30.4,29.90,ENE,60,2.2,5.4,44,0.00,,,0.00,WUHU216HW,2013-04-05 16:10:00,
2013-04-05 11:15:00,52.3,30.4,29.90,South,180,3.6,5.6,43,0.00,,,0.00,WUHU216HW,2013-04-05 16:15:00,
2013-04-05 11:20:00,51.7,29.3,29.90,NNW,338,6.7,7.2,42,0.00,,,0.00,WUHU216HW,2013-04-05 16:20:00,
2013-04-05 11:25:00,51.8,30.0,29.90,North,0,5.6,7.2,43,0.00,,,0.00,WUHU216HW,2013-04-05 16:25:00,
2013-04-05 11:30:00,51.9,30.6,29.90,NNE,23,4.7,6.7,44,0.00,,,0.00,WUHU216HW,2013-04-05 16:30:00,
2013-04-05 11:35:00,52.4,29.8,29.90,ENE,66,3.3,5.6,42,0.00,,,0.00,WUHU216HW,2013-04-05 16:35:00,
2013-04-05 11:40:00,52.1,29.0,29.90,NNE,23,3.8,6.3,41,0.00,,,0.00,WUHU216HW,2013-04-05 16:40:00,
2013-04-05 11:45:00,52.0,29.5,29.90,ENE,59,3.0,6.3,42,0.00,,,0.00,WUHU216HW,2013-04-05 16:45:00,
2013-04-05 11:50:00,52.3,29.2,29.89,North,0,5.4,5.4,41,0.00,,,0.00,WUHU216HW,2013-04-05 16:50:00,
2013-04-05 11:55:00,52.4,29.9,29.89,ENE,68,2.7,6.3,42,0.00,,,0.00,WUHU216HW,2013-04-05 16:55:00,
2013-04-05 12:00:00,52.9,29.7,29.89,NE,52,2.9,6.3,41,0.00,,,0.00,WUHU216HW,2013-04-05 17:00:00,
2013-04-05 12:05:00,53.2,30.6,29.89,NNW,338,3.8,4.3,42,0.00,,,0.00,WUHU216HW,2013-04-05 17:05:00,
2013-04-05 12:10:00,53.4,30.2,29.88,NE,45,2.2,4.3,41,0.00,,,0.00,WUHU216HW,2013-04-05 17:10:00,
2013-04-05 12:15:00,53.7,29.9,29.88,ESE,113,5.4,5.4,40,0.00,,,0.00,WUHU216HW,2013-04-05 17:15:00,
2013-04-05 12:20:00,53.7,29.2,29.88,SSW,203,4.0,5.4,39,0.00,,,0.00,WUHU216HW,2013-04-05 17:20:00,
2013-04-05 12:26:00,53.0,29.8,29.88,SE,131,2.4,4.0,41,0.00,,,0.00,WUHU216HW,2013-04-05 17:26:00,
2013-04-05 12:31:00,54.0,30.8,29.87,East,101,2.4,4.0,41,0.00,,,0.00,WUHU216HW,2013-04-05 17:31:00,
2013-04-05 12:37:00,54.2,30.3,29.87,NNE,23,3.4,4.0,40,0.00,,,0.00,WUHU216HW,2013-04-05 17:37:00,
2013-04-05 12:42:00,53.6,30.4,29.87,ENE,67,2.7,4.3,41,0.00,,,0.00,WUHU216HW,2013-04-05 17:42:00,
2013-04-05 12:47:00,53.7,28.5,29.87,South,180,2.9,4.7,38,0.00,,,0.00,WUHU216HW,2013-04-05 17:47:00,
2013-04-05 12:52:00,53.8,29.3,29.87,SE,135,3.6,6.0,39,0.00,,,0.00,WUHU216HW,2013-04-05 17:52:00,
2013-04-05 12:57:00,54.0,28.8,29.87,North,0,3.1,6.0,38,0.00,,,0.00,WUHU216HW,2013-04-05 17:57:00,
2013-04-05 13:02:00,54.6,29.4,29.87,ESE,122,2.5,5.4,38,0.00,,,0.00,WUHU216HW,2013-04-05 18:02:00,
2013-04-05 13:07:00,55.0,29.0,29.86,NNE,23,3.6,4.7,37,0.00,,,0.00,WUHU216HW,2013-04-05 18:07:00,
2013-04-05 13:12:00,55.6,29.6,29.86,SSE,158,2.9,4.7,37,0.00,,,0.00,WUHU216HW,2013-04-05 18:12:00,
2013-04-05 13:17:00,55.8,28.4,29.86,ESE,113,2.0,3.4,35,0.00,,,0.00,WUHU216HW,2013-04-05 18:17:00,
2013-04-05 13:22:00,56.0,29.9,29.86,SE,135,2.0,3.4,37,0.00,,,0.00,WUHU216HW,2013-04-05 18:22:00,
2013-04-05 13:27:00,55.9,28.5,29.86,SE,124,2.8,5.4,35,0.00,,,0.00,WUHU216HW,2013-04-05 18:27:00,
2013-04-05 13:32:00,55.5,28.1,29.86,SSW,203,3.4,5.8,35,0.00,,,0.00,WUHU216HW,2013-04-05 18:32:00,
2013-04-05 13:37:00,56.0,29.9,29.86,East,88,1.7,5.8,37,0.00,,,0.00,WUHU216HW,2013-04-05 18:37:00,
2013-04-05 13:42:00,56.2,28.7,29.86,NNE,23,3.4,4.0,35,0.00,,,0.00,WUHU216HW,2013-04-05 18:42:00,
2013-04-05 13:47:00,57.0,26.5,29.86,West,270,1.8,4.0,31,0.00,,,0.00,WUHU216HW,2013-04-05 18:47:00,
2013-04-05 13:52:00,57.7,28.7,29.86,North,0,3.1,3.1,33,0.00,,,0.00,WUHU216HW,2013-04-05 18:52:00,
2013-04-05 13:57:00,57.4,27.6,29.86,SE,132,2.2,3.6,32,0.00,,,0.00,WUHU216HW,2013-04-05 18:57:00,
2013-04-05 14:02:00,57.6,27.8,29.85,WNW,289,1.1,3.6,32,0.00,,,0.00,WUHU216HW,2013-04-05 19:02:00,
2013-04-05 14:07:00,57.9,28.1,29.85,ENE,64,2.0,2.5,32,0.00,,,0.00,WUHU216HW,2013-04-05 19:07:00,
2013-04-05 14:12:00,57.7,27.9,29.85,ENE,68,2.7,4.7,32,0.00,,,0.00,WUHU216HW,2013-04-05 19:12:00,
2013-04-05 14:17:00,57.0,27.3,29.84,North,8,2.1,5.4,32,0.00,,,0.00,WUHU216HW,2013-04-05 19:17:00,
2013-04-05 14:22:00,57.6,28.5,29.84,NNW,338,3.4,5.4,33,0.00,,,0.00,WUHU216HW,2013-04-05 19:22:00,
2013-04-05 14:27:00,57.2,27.5,29.83,ENE,68,2.5,4.5,32,0.00,,,0.00,WUHU216HW,2013-04-05 19:27:00,
2013-04-05 14:32:00,56.8,27.1,29.84,SE,135,2.0,4.5,32,0.00,,,0.00,WUHU216HW,2013-04-05 19:32:00,
2013-04-05 14:37:00,57.0,27.3,29.83,East,90,2.0,4.0,32,0.00,,,0.00,WUHU216HW,2013-04-05 19:37:00,
2013-04-05 14:42:00,57.6,27.8,29.83,SE,134,0.9,2.9,32,0.00,,,0.00,WUHU216HW,2013-04-05 19:42:00,
2013-04-05 14:47:00,57.7,27.9,29.82,ENE,68,2.1,3.4,32,0.00,,,0.00,WUHU216HW,2013-04-05 19:47:00,
2013-04-05 14:52:00,56.9,27.2,29.82,NE,45,2.2,3.4,32,0.00,,,0.00,WUHU216HW,2013-04-05 19:52:00,
2013-04-05 14:57:00,57.3,27.5,29.82,SE,135,2.7,4.3,32,0.00,,,0.00,WUHU216HW,2013-04-05 19:57:00,
2013-04-05 15:02:00,58.4,28.5,29.82,SSE,158,2.7,4.3,32,0.00,,,0.00,WUHU216HW,2013-04-05 20:02:00,
2013-04-05 15:08:00,58.1,28.2,29.82,ESE,105,1.6,3.4,32,0.00,,,0.00,WUHU216HW,2013-04-05 20:08:00,
2013-04-05 15:13:00,57.4,27.6,29.82,ENE,68,2.2,3.4,32,0.00,,,0.00,WUHU216HW,2013-04-05 20:13:00,
2013-04-05 15:18:00,56.9,27.2,29.82,ESE,113,1.3,2.9,32,0.00,,,0.00,WUHU216HW,2013-04-05 20:18:00,
2013-04-05 15:23:00,56.6,26.9,29.82,ENE,64,2.1,2.9,32,0.00,,,0.00,WUHU216HW,2013-04-05 20:23:00,
2013-04-05 15:28:00,56.1,26.5,29.81,NE,46,2.5,4.3,32,0.00,,,0.00,WUHU216HW,2013-04-05 20:28:00,
2013-04-05 15:33:00,56.0,27.1,29.81,SE,135,1.8,4.3,33,0.00,,,0.00,WUHU216HW,2013-04-05 20:33:00,
2013-04-05 15:38:00,56.3,27.4,29.81,NE,34,3.0,5.8,33,0.00,,,0.00,WUHU216HW,2013-04-05 20:38:00,
2013-04-05 15:43:00,56.6,27.6,29.81,East,90,1.1,5.8,33,0.00,,,0.00,WUHU216HW,2013-04-05 20:43:00,
2013-04-05 15:48:00,57.0,28.0,29.81,ESE,113,2.2,4.7,33,0.00,,,0.00,WUHU216HW,2013-04-05 20:48:00,
2013-04-05 15:53:00,57.4,27.6,29.80,NNE,33,2.0,4.7,32,0.00,,,0.00,WUHU216HW,2013-04-05 20:53:00,
2013-04-05 15:58:00,57.3,28.3,29.80,ENE,74,1.7,3.1,33,0.00,,,0.00,WUHU216HW,2013-04-05 20:58:00,
2013-04-05 16:03:00,57.2,27.4,29.80,SE,135,2.5,3.1,32,0.00,,,0.00,WUHU216HW,2013-04-05 21:03:00,
2013-04-05 16:08:00,57.6,27.8,29.80,NNE,23,3.4,3.4,32,0.00,,,0.00,WUHU216HW,2013-04-05 21:08:00,
2013-04-05 16:13:00,58.5,27.8,29.80,ENE,72,1.4,3.4,31,0.00,,,0.00,WUHU216HW,2013-04-05 21:13:00,
2013-04-05 16:18:00,58.6,28.7,29.80,NE,54,0.7,3.4,32,0.00,,,0.00,WUHU216HW,2013-04-05 21:18:00,
2013-04-05 16:23:00,58.6,27.1,29.81,NNE,23,6.3,6.3,30,0.00,,,0.00,WUHU216HW,2013-04-05 21:23:00,
2013-04-05 16:28:00,57.7,27.1,29.80,ENE,75,1.4,6.3,31,0.00,,,0.00,WUHU216HW,2013-04-05 21:28:00,
2013-04-05 16:33:00,57.4,26.1,29.80,NNW,338,4.5,6.3,30,0.00,,,0.00,WUHU216HW,2013-04-05 21:33:00,
2013-04-05 16:38:00,57.3,27.5,29.80,SE,135,1.8,6.3,32,0.00,,,0.00,WUHU216HW,2013-04-05 21:38:00,
2013-04-05 16:43:00,58.0,28.1,29.80,NNW,338,2.0,4.5,32,0.00,,,0.00,WUHU216HW,2013-04-05 21:43:00,
2013-04-05 16:48:00,57.2,27.5,29.80,NNE,21,3.1,5.1,32,0.00,,,0.00,WUHU216HW,2013-04-05 21:48:00,
2013-04-05 16:53:00,57.2,27.5,29.80,SE,135,1.1,5.1,32,0.00,,,0.00,WUHU216HW,2013-04-05 21:53:00,
2013-04-05 16:58:00,57.4,27.6,29.80,ENE,60,1.9,2.7,32,0.00,,,0.00,WUHU216HW,2013-04-05 21:58:00,
2013-04-05 17:03:00,57.5,28.5,29.80,ENE,65,1.2,2.7,33,0.00,,,0.00,WUHU216HW,2013-04-05 22:03:00,
2013-04-05 17:08:00,57.8,28.7,29.79,ESE,110,0.4,2.5,33,0.00,,,0.00,WUHU216HW,2013-04-05 22:08:00,
2013-04-05 17:13:00,57.7,27.9,29.79,ESE,113,1.8,2.5,32,0.00,,,0.00,WUHU216HW,2013-04-05 22:13:00,
2013-04-05 17:18:00,57.3,28.3,29.79,ENE,77,2.0,3.1,33,0.00,,,0.00,WUHU216HW,2013-04-05 22:18:00,
2013-04-05 17:23:00,57.4,27.6,29.78,ESE,118,2.4,5.1,32,0.00,,,0.00,WUHU216HW,2013-04-05 22:23:00,
2013-04-05 17:28:00,57.3,27.5,29.78,East,92,2.9,5.1,32,0.00,,,0.00,WUHU216HW,2013-04-05 22:28:00,
2013-04-05 17:29:00,57.1,27.3,29.78,ESE,113,1.8,5.1,32,0.00,,,0.00,WUHU216HW,2013-04-05 22:29:00,
2013-04-05 19:22:00,59.0,29.0,29.78,NNE,23,4.0,4.0,32,0.00,,,0.00,WUHU216HW,2013-04-06 00:22:00,
2013-04-05 19:27:00,59.0,29.0,29.78,NNE,23,4.0,4.0,32,0.00,,,0.00,WUHU216HW,2013-04-06 00:27:00,
2013-04-05 20:00:00,54.0,28.8,29.73,NNE,23,0.9,0.9,38,0.00,,,0.00,WUHU216HW,2013-04-06 01:00:00,
2013-04-05 20:05:00,53.6,28.5,29.73,North,0,0.7,2.0,38,0.00,,,0.00,WUHU216HW,2013-04-06 01:05:00,
2013-04-05 20:10:00,53.5,28.4,29.73,WSW,239,1.4,2.5,38,0.00,,,0.00,WUHU216HW,2013-04-06 01:10:00,
2013-04-05 20:15:00,53.5,28.4,29.73,SE,135,1.1,2.9,38,0.00,,,0.00,WUHU216HW,2013-04-06 01:15:00,
2013-04-05 20:19:00,53.3,28.2,29.73,ESE,113,0.9,0.9,38,0.00,,,0.00,WUHU216HW,2013-04-06 01:19:00,
2013-04-05 20:20:00,53.3,28.2,29.73,ESE,113,1.8,3.1,38,0.00,,,0.00,WUHU216HW,2013-04-06 01:20:00,
2013-04-05 20:25:00,53.3,28.2,29.73,ESE,113,0.9,3.1,38,0.00,,,0.00,WUHU216HW,2013-04-06 01:25:00,